map of BVB home
BVB - Airport
Location
City:  Boa Vista, Roraima, Brazil
Name:Atlas Brasil Cantanhede Airport
ICAO:SBBV
IATA:BVB

Details
Type:Airport (Aerodrome, Airfield)
Use:Public/Civil, International (customs port of entry)
Latitude:250'47"N (2.846311)
Longitude:6041'24"W (-60.690068)
Datum:WGS 1984
Elevation:276 ft (84 m)
Variation:15.46W (WMM2015 magnetic declination)
-0.09 annual change
Runways:1
Longest:8858 × 148 ft (2700 × 45 m), paved

Time
Time Zone:UTC-4
Local Time:

Weather
METAR:SBBV 231400Z 13008KT 9999 SCT010 SCT015 BKN070 27/23 Q1016
TAF:SBBV 231000Z 2312/2412 06010KT 9999 SCT025 FEW030TCU TX31/2318Z TN26/2407Z
BECMG 2315/2317 09008KT BKN035 FEW040TCU PROB30 2319/2321 TS BKN025 FEW030CB
BECMG 2322/2324 12005KT
RMK PEH

Related Locations
Nearby:
Farthest:WAFS: 12450 mi / 20036 km
Sumarorong [Sumarorong Airport], SR, ID

Find:

   beyond  
but within

Other Information
Maps:
NOTAMs:
Links:
Sources:

  
flag of Brazil
flag of Roraima
  

Sectional Chart

Flight Planning
at skyvector.com

Satellite Image

Google Maps Satellite view

 

Copyright © 2004-2018 Karl L. Swartz. All rights reserved.
The Great Circle Mapper name and logo are trademarks of the Great Circle Mapper.
All other trademarks mentioned herein belong to their respective owners.
Please see credits for attibutions and further copyright information.

  Follow gcmap on Facebook Follow gcmap on Twitter Follow gcmap on Google+ GCmap on LinkedIn

hCard Microformat

Geo Microformat